Weather in Mikun

Russia / Komi Republic     62°21′28″N   50°04′19″E
temp.,
°C
wind,
m/s
gust,
m/s
humid.,
%
clouds,
%
prec.,
mm/h
press.,
hPa
HPBL,
m
12 april, mon
mon1200:00+1wsw415864 0.0 1028628
03:000wsw413855 0.0 1031580
06:000wsw412895 0.0 1032560
09:00+4wsw510755 0.0 1034729
12:00+7wsw59605 0.0 10351150
15:00+8wsw47595 0.0 10361173
18:00+4ssw27806 0.0 1035120
21:00+3ssw31383100 0.0 1035304
13 april, tue
tue1300:00+4sw4158410 0.0 1034465
03:00+5sw4138952 0.0 1033398
06:00+4ssw31293100 0.0 1032368
09:00+7ssw41277100 0.0 1030533
12:00+9ssw51374100 0.0 1027729
15:00+10sw51281100 0.0 1025900
18:00+9sw41188100 0.0 1024798
21:00+9sw41192100 0.0 1024511
14 april, wed
wed1400:00+8sw31196100 0.0 1023415
03:00+8ssw3997100 0.0 1023311
06:00+7ssw31195100 0.0 1022361
09:00+11sw41078100 0.0 1021518
12:00+16sw5126397 0.1 10201095
15:00+17sw6135352 0.1 10181503
18:00+14sw61461100 0.0 1016892
21:00+12sw6166893 0.0 1016847
15 april, thu
thu1500:00+11sw5157077 0.0 1015791
03:00+8nnw5886100 0.1 1017656
06:00+3nw3791100 0.8 1019562
09:00+6nw3566100 0.9 10211240
12:00+7nnw4547100 0.0 10211697
15:00+6n4545100 0.0 10231642
18:00+5n365198 0.0 1024400
21:00+1n256752 0.0 102597
16 april, fri
fri1600:00−1ne26785 0.0 1026128
03:00−1ne23785 0.0 102764
06:000ene13705 0.0 1028175
09:00+4n124994 0.0 10271036
12:00+6nnw2438100 0.0 10262164
15:00+6nw2540100 0.0 10251891
18:00+5nw2556100 0.4 1024194
21:00+2nnw597387 0.6 1025949